Weather History for Wendover, UT

Change the Weather History Date:

Friday, August 16, 2013

  Actual Average Record
Temperature  
Mean Temperature 81 °F -  
Max Temperature 98 °F 86 °F 100 °F (2002)
Min Temperature 64 °F 64 °F 52 °F (1960)
Cooling Degree Days 16    
Growing Degree Days 31 (Base 50)    
Moisture  
Dew Point 32 °F    
Average Humidity 17    
Maximum Humidity 28    
Minimum Humidity 12    
Precipitation  
Precipitation 0.00 in - - ()
Sea Level Pressure  
Sea Level Pressure 30.05 in    
Wind  
Wind Speed 6 mph (ENE)    
Max Wind Speed 17 mph    
Max Gust Speed 21 mph    
Visibility 10 miles    
Events      
Averages and records for this station are not official NWS values.
T = Trace of Precipitation, MM = Missing Value Source: NWS Daily Summary

Daily Weather History Graph

Daily Weather History Graph

Search for Another Location

Airport:

Trip Planner

Search our weather history database for the weather conditions in past years. The results will help you decide how hot, cold, wet, or windy it might be!

Date:

Astronomy

Aug. 16, 2013 Rise Set
Actual Time 6:47 AM MDT 8:32 PM MDT
Civil Twilight 6:18 AM MDT 9:01 PM MDT
Nautical Twilight 5:42 AM MDT 9:36 PM MDT
Astronomical Twilight 5:04 AM MDT 10:14 PM MDT
Moon 4:55 PM MDT (8/16) 1:53 AM MDT (8/16)
Length of Visible Light 14h 42m
Length of Day
13h 44m
Waxing Gibbous, 75% of the Moon is Illuminated
Aug 16
Waxing Gibbous
Aug 20
Full
Aug 28
Last Quarter
Sep 5
New
Sep 12
First Quarter

Hourly Weather History & Observations

Time (MDT) Temp. Dew Point Humidity Pressure Visibility Wind Dir Wind Speed Gust Speed Precip Events Conditions
12:15 AM 78.8 °F 24.8 °F 14% 30.03 in 10.0 mi Calm Calm - N/A   Clear
12:35 AM 71.6 °F 19.4 °F 14% 30.04 in 10.0 mi WSW 5.8 mph - N/A   Clear
12:55 AM 69.8 °F 26.6 °F 20% 30.04 in 10.0 mi West 3.5 mph - N/A   Clear
1:15 AM 69.8 °F 24.8 °F 18% 30.04 in 10.0 mi Calm Calm - N/A   Clear
1:35 AM 69.8 °F 24.8 °F 18% 30.04 in 10.0 mi West 3.5 mph - N/A   Clear
1:55 AM 68.0 °F 28.4 °F 23% 30.03 in 10.0 mi NW 5.8 mph - N/A   Partly Cloudy
2:15 AM 69.8 °F 28.4 °F 21% 30.03 in 10.0 mi Calm Calm - N/A   Partly Cloudy
2:35 AM 68.0 °F 26.6 °F 21% 30.03 in 10.0 mi WSW 4.6 mph - N/A   Clear
2:55 AM 68.0 °F 26.6 °F 21% 30.03 in 10.0 mi Calm Calm - N/A   Clear
3:15 AM 68.0 °F 24.8 °F 20% 30.03 in 10.0 mi West 3.5 mph - N/A   Clear
3:35 AM 66.2 °F 28.4 °F 24% 30.04 in 10.0 mi Calm Calm - N/A   Partly Cloudy
3:55 AM 64.4 °F 30.2 °F 28% 30.04 in 10.0 mi East 4.6 mph - N/A   Clear
4:35 AM 66.2 °F 26.6 °F 23% 30.04 in 10.0 mi NE 5.8 mph - N/A   Clear
4:55 AM 64.4 °F 28.4 °F 26% 30.04 in 10.0 mi ENE 5.8 mph - N/A   Clear
5:15 AM 66.2 °F 26.6 °F 23% 30.04 in 10.0 mi ENE 5.8 mph - N/A   Clear
5:35 AM 66.2 °F 26.6 °F 23% 30.04 in 10.0 mi NNE 4.6 mph - N/A   Clear
5:55 AM 64.4 °F 26.6 °F 24% 30.05 in 10.0 mi NE 5.8 mph - N/A   Clear
6:15 AM 69.8 °F 24.8 °F 18% 30.05 in 10.0 mi ENE 12.7 mph - N/A   Clear
6:35 AM 68.0 °F 24.8 °F 20% 30.06 in 10.0 mi NE 12.7 mph - N/A   Clear
6:55 AM 68.0 °F 24.8 °F 20% 30.06 in 10.0 mi NE 12.7 mph - N/A   Clear
7:15 AM 69.8 °F 24.8 °F 18% 30.07 in 10.0 mi ENE 12.7 mph - N/A   Clear
7:35 AM 69.8 °F 24.8 °F 18% 30.08 in 10.0 mi ENE 9.2 mph - N/A   Clear
7:55 AM 69.8 °F 24.8 °F 18% 30.09 in 10.0 mi NNW 6.9 mph - N/A   Clear
8:15 AM 69.8 °F 24.8 °F 18% 30.09 in 10.0 mi Calm Calm - N/A   Clear
8:35 AM 73.4 °F 24.8 °F 16% 30.10 in 10.0 mi NNE 4.6 mph - N/A   Clear
8:55 AM 75.2 °F 26.6 °F 17% 30.10 in 10.0 mi NE 9.2 mph - N/A   Clear
9:15 AM 75.2 °F 26.6 °F 17% 30.11 in 10.0 mi ENE 11.5 mph - N/A   Clear
9:35 AM 78.8 °F 28.4 °F 16% 30.11 in 10.0 mi ENE 11.5 mph - N/A   Clear
9:55 AM 78.8 °F 30.2 °F 17% 30.11 in 10.0 mi ENE 12.7 mph - N/A   Clear
10:15 AM 80.6 °F 30.2 °F 16% 30.11 in 10.0 mi East 13.8 mph - N/A   Clear
10:35 AM 82.4 °F 32.0 °F 16% 30.11 in 10.0 mi East 11.5 mph - N/A   Clear
10:55 AM 82.4 °F 32.0 °F 16% 30.12 in 10.0 mi East 10.4 mph - N/A   Clear
11:35 AM 87.8 °F 30.2 °F 13% 30.11 in 10.0 mi ENE 9.2 mph - N/A   Clear
11:55 AM 87.8 °F 33.8 °F 15% 30.11 in 10.0 mi East 9.2 mph - N/A   Clear
12:15 PM 89.6 °F 33.8 °F 14% 30.11 in 10.0 mi East 9.2 mph - N/A   Clear
12:35 PM 89.6 °F 33.8 °F 14% 30.10 in 10.0 mi East 9.2 mph - N/A   Clear
12:55 PM 91.4 °F 35.6 °F 14% 30.10 in 10.0 mi East 8.1 mph - N/A   Clear
1:35 PM 91.4 °F 37.4 °F 15% 30.09 in 10.0 mi East 9.2 mph - N/A   Clear
1:55 PM 93.2 °F 37.4 °F 14% 30.08 in 10.0 mi ENE 10.4 mph - N/A   Clear
2:15 PM 95.0 °F 37.4 °F 13% 30.07 in 10.0 mi East 11.5 mph - N/A   Clear
2:35 PM 96.8 °F 37.4 °F 13% 30.07 in 10.0 mi ESE 12.7 mph - N/A   Clear
2:55 PM 96.8 °F 37.4 °F 13% 30.06 in 10.0 mi East 12.7 mph - N/A   Clear
3:15 PM 98.6 °F 37.4 °F 12% 30.05 in 10.0 mi ESE 12.7 mph 16.1 mph N/A   Clear
3:35 PM 96.8 °F 37.4 °F 13% 30.05 in 10.0 mi ESE 17.3 mph - N/A   Clear
3:55 PM 96.8 °F 37.4 °F 13% 30.04 in 10.0 mi ESE 16.1 mph 20.7 mph N/A   Clear
4:15 PM 96.8 °F 37.4 °F 13% 30.04 in 10.0 mi ESE 11.5 mph - N/A   Clear
4:35 PM 96.8 °F 37.4 °F 13% 30.03 in 10.0 mi ESE 12.7 mph - N/A   Clear
4:55 PM 96.8 °F 35.6 °F 12% 30.03 in 10.0 mi ESE 13.8 mph 18.4 mph N/A   Clear
5:15 PM 96.8 °F 35.6 °F 12% 30.02 in 10.0 mi ESE 15.0 mph - N/A   Clear
5:55 PM 96.8 °F 35.6 °F 12% 30.02 in 10.0 mi ESE 12.7 mph - N/A   Clear
6:15 PM 96.8 °F 35.6 °F 12% 30.01 in 10.0 mi ESE 15.0 mph - N/A   Clear
6:35 PM 96.8 °F 35.6 °F 12% 30.01 in 10.0 mi ESE 11.5 mph - N/A   Clear
6:55 PM 95.0 °F 35.6 °F 12% 30.01 in 10.0 mi ESE 10.4 mph - N/A   Clear
7:15 PM 93.2 °F 35.6 °F 13% 30.01 in 10.0 mi ESE 8.1 mph - N/A   Clear
7:35 PM 93.2 °F 35.6 °F 13% 30.01 in 10.0 mi East 5.8 mph - N/A   Clear
7:55 PM 91.4 °F 37.4 °F 15% 30.01 in 10.0 mi ESE 5.8 mph - N/A   Clear
8:55 PM 86.0 °F 39.2 °F 19% 30.01 in 10.0 mi ENE 4.6 mph - N/A   Clear
9:15 PM 86.0 °F 41.0 °F 20% 30.01 in 10.0 mi ENE 3.5 mph - N/A   Clear
9:35 PM 84.2 °F 37.4 °F 19% 30.02 in 10.0 mi West 5.8 mph - N/A   Clear
9:55 PM 84.2 °F 35.6 °F 18% 30.03 in 10.0 mi NW 5.8 mph - N/A   Clear
10:15 PM 84.2 °F 35.6 °F 18% 30.03 in 10.0 mi NW 5.8 mph - N/A   Clear
10:35 PM 82.4 °F 35.6 °F 19% 30.03 in 10.0 mi Calm Calm - N/A   Clear
10:55 PM 80.6 °F 37.4 °F 21% 30.04 in 10.0 mi NNE 3.5 mph - N/A   Clear
11:15 PM 78.8 °F 39.2 °F 24% 30.04 in 10.0 mi East 3.5 mph - N/A   Clear
11:35 PM 78.8 °F 37.4 °F 23% 30.04 in 10.0 mi East 3.5 mph - N/A   Clear